Location: Unspecified
(0.0000°N, 0.0000°E)
Time: 23:50:24
(UTC+00:00)

A-11 Canister half - Pass Details

Date: 15 February 2023
Orbit: 1526 x 1682 km, 47.3° (Epoch: 29 March)

Event Time Altitude Azimuth Distance (km) Brightness Sun altitude
Rises 21:49:30 0° 201° (SSW) 4,886 12.0 -52.0°
Reaches altitude 10° 21:53:11 10° 192° (SSW) 3,877 11.3 -52.9°
Enters shadow 21:54:34 14° 186° (S) 3,530 11.0 -53.2°
Maximum altitude 22:01:41 32° 132° (SE) 2,476 - -54.9°
Drops below altitude 10° 22:09:54 10° 72° (ENE) 3,762 - -56.8°
Sets 22:13:21 0° 62° (ENE) 4,723 - -57.5°
